• In Netherlands
  • List of Countries
  • For 7 days
  • Water Temperature
  • Satellite Maps
  • Weather Map
  • Weather Widgets
  • user-avatar
    Login

    Hourly Weather Yelsk

    Today, 23 July, Sunday

    Time Temperature Precipitation Wind Pressure Humidity
    00:00 +18°C° 0 mm 1 mps 747 mmHg 85%
    01:00 +16°C° 0 mm 1 mps 747 mmHg 87%
    02:00 +16°C° 0 mm 1 mps 747 mmHg 89%
    03:00 +15°C° 0 mm 1 mps 748 mmHg 90%
    04:00 +15°C° 0 mm 1 mps 748 mmHg 91%
    05:00 +15°C° 0 mm 1 mps 748 mmHg 92%
    06:00 +18°C° 0 mm 1 mps 748 mmHg 83%
    07:00 +20°C° 0 mm 1 mps 748 mmHg 75%
    08:00 +22°C° 0 mm 1 mps 748 mmHg 67%
    09:00 +23°C° 0 mm 1 mps 748 mmHg 61%
    10:00 +24°C° 0 mm 1 mps 748 mmHg 55%
    11:00 +26°C° 0 mm 1 mps 748 mmHg 49%
    12:00 +26°C° 0 mm 1 mps 748 mmHg 47%
    13:00 +27°C° 0 mm 1 mps 748 mmHg 45%
    14:00 +28°C° 0 mm 1 mps 747 mmHg 43%
    15:00 +27°C° 0 mm 1 mps 747 mmHg 45%
    16:00 +27°C° 0 mm 1 mps 747 mmHg 47%
    17:00 +26°C° 0 mm 1 mps 747 mmHg 49%
    18:00 +25°C° 0 mm 1 mps 747 mmHg 54%
    19:00 +23°C° 0 mm 2 mps 747 mmHg 58%
    20:00 +21°C° 0 mm 2 mps 747 mmHg 63%
    21:00 +20°C° 0 mm 2 mps 747 mmHg 66%
    22:00 +19°C° 0 mm 2 mps 746 mmHg 68%
    23:00 +18°C° 0 mm 2 mps 746 mmHg 70%

    Tomorrow, 24 July, Monday

    Time Temperature Precipitation Wind Pressure Humidity
    00:00 +18°C° 0 mm 3 mps 746 mmHg 72%
    01:00 +18°C° 0 mm 3 mps 746 mmHg 74%
    02:00 +17°C° 0 mm 3 mps 746 mmHg 75%
    03:00 +17°C° 0.1 mm 3 mps 746 mmHg 77%
    04:00 +17°C° 0.1 mm 2 mps 746 mmHg 79%
    05:00 +17°C° 0.1 mm 2 mps 745 mmHg 80%
    06:00 +18°C° 0.1 mm 3 mps 745 mmHg 78%
    07:00 +19°C° 0.1 mm 3 mps 745 mmHg 76%
    08:00 +20°C° 0.1 mm 3 mps 745 mmHg 74%
    09:00 +21°C° 0.2 mm 3 mps 745 mmHg 70%
    10:00 +22°C° 0.2 mm 4 mps 744 mmHg 65%
    11:00 +25°C° 0.2 mm 4 mps 744 mmHg 61%
    12:00 +26°C° 0.2 mm 4 mps 744 mmHg 58%
    13:00 +27°C° 0.2 mm 4 mps 743 mmHg 55%
    14:00 +28°C° 0.2 mm 5 mps 743 mmHg 52%
    15:00 +28°C° 0.1 mm 4 mps 743 mmHg 54%
    16:00 +28°C° 0.1 mm 4 mps 742 mmHg 55%
    17:00 +28°C° 0.1 mm 3 mps 742 mmHg 56%
    18:00 +27°C° 0 mm 3 mps 742 mmHg 63%
    19:00 +25°C° 0 mm 2 mps 742 mmHg 69%
    20:00 +24°C° 0 mm 2 mps 742 mmHg 75%
    21:00 +23°C° 0 mm 2 mps 742 mmHg 77%
    22:00 +21°C° 0 mm 2 mps 741 mmHg 79%
    23:00 +20°C° 0 mm 2 mps 741 mmHg 81%

    Day after tomorrow, 25 July, Tuesday

    Time Temperature Precipitation Wind Pressure Humidity
    00:00 +20°C° 0 mm 2 mps 741 mmHg 79%
    01:00 +19°C° 0 mm 3 mps 741 mmHg 78%
    02:00 +19°C° 0 mm 3 mps 741 mmHg 76%
    03:00 +19°C° 0.1 mm 2 mps 741 mmHg 77%
    04:00 +18°C° 0.1 mm 2 mps 741 mmHg 78%
    05:00 +18°C° 0.1 mm 2 mps 741 mmHg 79%
    06:00 +20°C° 0 mm 2 mps 741 mmHg 73%
    07:00 +21°C° 0 mm 3 mps 740 mmHg 68%
    08:00 +23°C° 0 mm 4 mps 740 mmHg 62%
    09:00 +26°C° 0 mm 4 mps 740 mmHg 56%
    10:00 +28°C° 0 mm 5 mps 740 mmHg 50%
    11:00 +30°C° 0 mm 5 mps 739 mmHg 45%
    12:00 +30°C° 0 mm 5 mps 739 mmHg 43%
    13:00 +32°C° 0 mm 5 mps 739 mmHg 41%
    14:00 +33°C° 0 mm 5 mps 739 mmHg 40%
    15:00 +32°C° 0 mm 5 mps 738 mmHg 42%
    16:00 +32°C° 0 mm 4 mps 738 mmHg 44%
    17:00 +32°C° 0 mm 4 mps 738 mmHg 46%
    18:00 +29°C° 0 mm 4 mps 738 mmHg 50%
    19:00 +28°C° 0 mm 4 mps 738 mmHg 54%
    20:00 +26°C° 0 mm 4 mps 738 mmHg 58%
    21:00 +25°C° 0.2 mm 4 mps 738 mmHg 61%
    22:00 +23°C° 0.2 mm 4 mps 737 mmHg 63%
    23:00 +23°C° 0.2 mm 4 mps 737 mmHg 65%

    26 July, Wednesday

    Time Temperature Precipitation Wind Pressure Humidity
    00:00 +22°C° 0.8 mm 4 mps 737 mmHg 70%
    01:00 +20°C° 0.8 mm 4 mps 737 mmHg 75%
    02:00 +19°C° 0.8 mm 3 mps 737 mmHg 79%
    03:00 +19°C° 0.2 mm 3 mps 737 mmHg 82%
    04:00 +19°C° 0.2 mm 3 mps 737 mmHg 84%
    05:00 +18°C° 0.2 mm 3 mps 736 mmHg 86%
    06:00 +20°C° 0 mm 4 mps 737 mmHg 79%
    07:00 +22°C° 0 mm 4 mps 737 mmHg 72%
    08:00 +25°C° 0 mm 5 mps 737 mmHg 65%
    09:00 +27°C° 0 mm 5 mps 737 mmHg 58%
    10:00 +29°C° 0 mm 6 mps 737 mmHg 50%
    11:00 +32°C° 0 mm 6 mps 737 mmHg 43%
    12:00 +32°C° 0 mm 6 mps 737 mmHg 42%
    13:00 +33°C° 0 mm 7 mps 737 mmHg 41%
    14:00 +33°C° 0 mm 7 mps 738 mmHg 40%
    15:00 +32°C° 0.1 mm 6 mps 738 mmHg 45%
    16:00 +30°C° 0.1 mm 6 mps 738 mmHg 50%
    17:00 +29°C° 0.1 mm 5 mps 738 mmHg 55%
    18:00 +27°C° 0.9 mm 4 mps 738 mmHg 64%
    19:00 +25°C° 0.9 mm 3 mps 738 mmHg 72%
    20:00 +23°C° 0.9 mm 2 mps 739 mmHg 81%
    21:00 +21°C° 0.6 mm 2 mps 739 mmHg 83%
    22:00 +21°C° 0.6 mm 1 mps 740 mmHg 86%
    23:00 +21°C° 0.6 mm 1 mps 740 mmHg 88%

    27 July, Thursday

    Time Temperature Precipitation Wind Pressure Humidity
    00:00 +20°C° 0 mm 1 mps 740 mmHg 88%
    01:00 +20°C° 0 mm 1 mps 740 mmHg 89%
    02:00 +20°C° 0 mm 1 mps 740 mmHg 89%
    03:00 +19°C° 0 mm 1 mps 740 mmHg 89%
    04:00 +19°C° 0 mm 1 mps 741 mmHg 90%
    05:00 +19°C° 0 mm 1 mps 741 mmHg 90%
    06:00 +21°C° 0 mm 1 mps 741 mmHg 83%
    07:00 +23°C° 0 mm 1 mps 741 mmHg 76%
    08:00 +24°C° 0 mm 1 mps 741 mmHg 69%
    09:00 +26°C° 0 mm 1 mps 742 mmHg 62%
    10:00 +28°C° 0 mm 1 mps 742 mmHg 55%
    11:00 +29°C° 0 mm 2 mps 742 mmHg 48%
    12:00 +30°C° 0 mm 2 mps 742 mmHg 46%
    13:00 +31°C° 0 mm 2 mps 742 mmHg 44%
    14:00 +31°C° 0 mm 2 mps 741 mmHg 42%
    15:00 +31°C° 0 mm 2 mps 741 mmHg 44%
    16:00 +30°C° 0 mm 2 mps 741 mmHg 47%
    17:00 +30°C° 0 mm 3 mps 741 mmHg 49%
    18:00 +28°C° 0 mm 2 mps 741 mmHg 56%
    19:00 +26°C° 0 mm 2 mps 742 mmHg 62%
    20:00 +25°C° 0 mm 2 mps 742 mmHg 69%
    21:00 +24°C° 0 mm 2 mps 742 mmHg 73%
    22:00 +21°C° 0 mm 2 mps 742 mmHg 77%
    23:00 +20°C° 0 mm 2 mps 743 mmHg 81%

    28 July, Friday

    Time Temperature Precipitation Wind Pressure Humidity
    00:00 +19°C° 0 mm 2 mps 743 mmHg 84%
    01:00 +18°C° 0 mm 2 mps 743 mmHg 87%
    02:00 +17°C° 0 mm 3 mps 743 mmHg 90%
    03:00 +17°C° 0 mm 3 mps 743 mmHg 92%
    04:00 +17°C° 0 mm 3 mps 743 mmHg 93%
    05:00 +16°C° 0 mm 3 mps 743 mmHg 94%
    06:00 +17°C° 0 mm 3 mps 744 mmHg 89%
    07:00 +19°C° 0 mm 3 mps 744 mmHg 85%
    08:00 +20°C° 0 mm 3 mps 744 mmHg 80%
    09:00 +22°C° 0 mm 3 mps 744 mmHg 74%
    10:00 +24°C° 0 mm 3 mps 744 mmHg 67%
    11:00 +26°C° 0 mm 3 mps 745 mmHg 61%
    12:00 +27°C° 0 mm 3 mps 745 mmHg 57%
    13:00 +28°C° 0 mm 3 mps 745 mmHg 53%
    14:00 +29°C° 0 mm 3 mps 745 mmHg 49%
    15:00 +29°C° 0 mm 3 mps 745 mmHg 49%
    16:00 +29°C° 0 mm 3 mps 745 mmHg 48%
    17:00 +28°C° 0 mm 3 mps 745 mmHg 48%
    18:00 +27°C° 0 mm 3 mps 745 mmHg 54%
    19:00 +25°C° 0 mm 2 mps 745 mmHg 60%
    20:00 +23°C° 0 mm 2 mps 745 mmHg 66%
    21:00 +21°C° 0 mm 2 mps 745 mmHg 69%
    22:00 +20°C° 0 mm 2 mps 745 mmHg 73%
    23:00 +18°C° 0 mm 2 mps 745 mmHg 77%
    Show more